Wind_Speed
2 1 2 3 4 5 6 8 10 11 12 12 13 15 16 18 19 20 20 20 21 22 22 23 25 27 28 30 31 31 32 32 32 31 31 30 29 28 27 26 25 25 25 25 25 26 26 25 24
4 3 3 3 1 2 3 4 6 7 9 10 12 13 15 16 17 18 18 18 18 19 20 22 24 26 28 29 30 32 33 34 34 34 33 33 32 31 31 30 28 28 27 28 28 29 29 29 28
6 6 6 5 3 1 0 1 2 5 7 9 11 12 12 13 13 14 14 15 16 17 19 21 23 24 26 28 29 31 32 34 35 35 35 35 34 34 33 32 31 30 30 30 31 32 32 32 32
9 8 7 6 5 5 4 4 5 5 7 8 9 10 11 11 12 13 14 15 17 18 20 22 24 25 27 28 30 31 32 34 35 36 36 36 36 36 35 34 34 33 33 33 33 34 34 35 35
9 9 7 6 6 6 7 7 6 6 6 7 9 10 11 13 14 16 17 19 20 22 23 25 27 28 30 31 32 33 34 35 36 37 38 38 38 37 37 37 37 36 36 35 35 36 36 36 37
9 7 6 6 6 7 7 7 7 7 8 9 10 12 13 15 17 18 20 22 24 25 27 29 31 33 34 36 37 38 39 40 40 40 41 41 41 41 40 40 40 40 39 39 39 39 38 38 38
8 7 8 8 8 8 8 8 8 9 10 11 12 13 15 16 18 19 21 22 24 25 27 29 30 32 34 36 37 39 40 42 43 43 44 45 45 45 45 44 44 43 43 42 42 42 42 41 41
10 9 9 9 9 8 8 9 10 12 13 14 15 16 17 18 19 21 22 24 25 27 29 30 32 34 36 38 39 40 41 42 42 43 44 45 46 47 48 48 48 47 47 46 46 45 45 44 43
10 9 8 8 8 8 8 9 10 12 13 15 16 17 18 19 20 22 24 25 27 29 31 33 34 36 38 40 41 43 44 45 46 46 46 46 46 46 47 48 49 50 50 49 49 48 48 47 46
9 8 8 8 8 8 8 9 10 11 12 14 15 17 19 21 23 25 27 30 32 34 36 38 40 42 43 45 46 47 47 48 49 50 50 50 50 49 48 48 49 49 50 51 51 51 50 50 49
8 9 9 9 10 10 10 10 10 11 12 15 17 19 22 24 27 30 32 35 37 39 41 44 46 47 49 50 51 52 53 53 54 54 53 53 53 53 52 52 51 50 50 51 52 52 52 52 52
8 9 9 10 10 11 11 12 12 13 15 18 21 23 26 29 32 34 37 39 42 44 47 49 52 53 55 56 56 57 57 58 58 59 59 58 58 57 56 55 55 54 53 52 52 53 53 54 54
9 9 9 10 10 11 12 13 14 16 19 22 25 27 30 33 36 39 42 45 48 51 55 58 60 62 63 64 65 66 65 65 64 64 64 63 62 61 61 60 59 58 57 56 56 55 55 55 55
8 8 9 10 11 12 14 15 17 19 22 25 29 32 35 39 42 46 49 53 56 59 62 65 67 69 70 72 73 74 74 74 73 72 71 70 69 67 65 64 64 63 62 61 60 60 59 58 57
7 7 8 9 11 12 14 16 19 22 26 30 34 38 41 45 49 53 57 60 63 66 69 71 74 76 78 80 81 82 83 82 82 80 79 77 76 74 71 69 67 67 66 66 65 64 64 62 61
5 7 8 10 11 13 16 18 22 26 31 35 40 44 48 53 56 60 63 67 70 73 76 79 80 82 84 86 87 88 87 87 86 84 83 82 81 80 79 76 73 71 70 69 69 68 68 67 66
5 7 9 11 14 17 21 24 27 31 36 40 45 50 54 58 62 65 68 71 74 77 79 81 82 83 85 86 87 87 86 84 83 81 80 80 82 82 82 81 78 76 74 73 72 71 71 70 69
7 9 12 15 18 22 25 28 31 35 39 44 49 54 59 63 66 69 72 75 77 79 80 81 82 83 82 81 78 75 73 70 69 68 67 69 73 78 83 84 83 81 78 76 75 74 73 72 72
11 13 16 18 22 25 28 31 33 38 43 48 53 58 62 66 70 73 74 76 78 79 80 80 80 77 73 68 63 59 55 51 49 49 50 53 57 64 75 84 86 85 83 81 79 78 77 75 74
15 17 19 21 24 28 32 33 36 42 46 51 56 62 67 71 73 74 76 78 79 80 79 77 73 67 62 58 54 50 45 43 43 44 45 45 47 50 57 69 82 89 88 86 84 82 80 78 77
17 20 22 25 28 30 36 37 40 45 50 56 61 67 71 74 76 77 78 79 79 78 74 69 63 58 55 52 49 46 45 45 45 44 44 45 45 45 46 53 64 80 90 91 89 87 85 83 80
20 23 26 29 31 33 38 43 44 49 55 61 66 70 74 76 77 78 79 79 77 74 67 61 56 54 52 51 49 47 46 45 45 44 44 44 44 44 44 44 49 60 77 90 93 92 90 87 84
23 26 29 31 34 36 39 46 49 54 60 65 70 73 75 77 77 78 78 76 74 68 61 56 54 53 52 52 51 50 50 49 48 47 46 44 43 43 42 41 41 45 56 72 87 93 93 92 89
24 27 30 33 37 39 44 48 54 59 64 68 72 75 76 77 78 78 76 73 68 62 57 54 54 54 55 54 54 54 54 54 52 51 49 46 44 42 41 39 38 37 41 51 65 80 89 93 92
24 28 33 38 42 43 46 51 58 63 67 71 74 75 77 78 78 75 72 68 63 59 56 55 56 58 58 58 58 58 57 57 56 55 53 50 46 43 40 38 36 35 34 38 46 58 71 82 89
24 27 32 37 42 45 49 54 61 66 70 73 75 76 77 77 75 72 68 64 60 58 58 59 60 61 61 60 59 58 58 57 56 56 54 52 49 45 41 37 35 34 33 33 36 43 52 63 74
26 30 33 38 44 49 53 58 65 69 72 74 75 76 77 75 72 68 65 62 60 60 61 62 62 61 59 57 55 54 53 53 52 52 52 51 50 47 44 39 36 34 33 33 33 36 41 48 56
28 33 37 40 46 53 58 63 67 71 73 75 75 76 75 72 69 65 63 62 63 64 64 62 59 56 53 51 51 50 50 49 49 48 48 47 46 46 45 42 39 36 34 33 33 33 36 40 44
30 34 38 42 47 53 60 65 68 72 74 75 75 75 73 69 66 64 64 65 65 64 61 57 54 52 51 50 50 50 49 49 49 49 47 46 44 43 43 42 41 39 37 36 34 34 35 37 39
31 35 39 44 50 55 61 67 71 72 73 74 75 74 70 67 65 65 65 66 64 60 56 53 51 51 51 51 51 51 51 50 50 49 47 46 44 42 40 40 41 41 40 38 37 36 36 37 38
Wind_Direction
328 320 319 301 293 285 274 261 251 252 254 257 263 264 267 268 271 274 271 268 265 264 263 264 263 263 262 262 262 262 262 262 262 262 262 263 262 262 261 259 257 254 251 247 244 241 240 240 241
52 52 41 28 345 321 289 268 257 269 274 277 278 279 278 278 279 279 279 276 272 269 268 266 264 262 262 263 263 264 264 264 263 262 261 261 261 260 260 259 257 254 252 249 246 243 242 241 241
61 62 60 59 78 95 42 340 315 303 304 301 300 301 298 295 290 287 285 281 279 275 271 270 268 267 265 264 264 264 264 264 264 264 262 261 260 259 258 257 255 254 252 249 247 244 242 241 241
65 61 61 60 62 69 58 39 14 348 334 326 320 315 312 309 303 296 291 288 285 282 280 278 276 274 272 270 269 268 267 267 266 266 265 264 262 261 259 257 256 254 252 250 248 246 244 242 240
66 63 63 53 55 50 44 32 18 7 350 333 323 316 311 308 303 298 295 292 289 287 285 283 282 280 278 276 273 271 269 268 267 266 265 265 263 262 261 259 258 256 253 251 249 247 245 243 241
67 60 56 47 40 34 25 14 2 351 339 329 321 316 310 307 303 300 297 295 293 292 290 288 286 284 282 279 277 275 272 270 268 266 265 264 262 261 259 258 257 256 255 253 251 248 246 243 242
65 56 53 44 37 27 17 6 356 348 341 335 330 325 321 318 315 312 309 307 305 302 299 297 294 291 288 285 282 279 276 273 270 268 265 264 262 261 259 257 256 254 253 252 251 249 247 245 243
62 60 56 48 41 29 17 6 358 351 346 344 340 335 331 327 323 320 317 314 310 306 302 299 296 293 290 287 285 282 280 277 274 271 268 265 263 261 259 258 256 253 252 251 250 249 248 246 245
57 54 49 42 35 25 13 3 356 350 347 345 343 339 335 331 327 322 318 314 310 306 303 300 297 294 291 288 286 283 281 278 276 274 271 268 265 262 260 258 256 254 252 250 249 248 248 247 246
45 41 38 35 34 31 23 15 7 360 355 350 345 339 334 328 323 319 315 312 308 305 303 300 298 295 293 290 288 285 282 280 277 275 273 270 267 264 261 258 256 254 252 250 249 248 247 247 246
43 43 43 42 41 41 38 31 21 8 356 346 339 333 329 325 322 318 315 312 309 306 304 301 299 296 293 290 287 285 282 280 278 276 273 272 269 267 263 259 256 254 252 250 248 247 246 245 244
56 55 51 47 43 39 31 22 12 1 352 347 341 336 332 327 323 319 315 312 308 305 302 300 297 295 293 290 288 285 282 280 277 275 273 270 269 267 265 262 258 254 252 249 248 247 246 245 244
64 58 50 42 35 29 20 12 4 358 353 346 339 333 328 323 319 315 311 308 305 303 301 299 298 296 294 292 290 287 284 281 278 275 273 270 267 265 263 261 259 256 253 250 248 247 246 246 245
56 48 40 33 26 19 11 3 357 350 344 338 332 328 323 319 315 312 310 308 306 304 302 301 299 297 296 294 292 289 287 284 281 277 273 270 267 264 261 259 257 255 253 251 248 246 245 245 245
43 34 26 20 13 7 360 351 345 340 335 330 326 323 319 316 314 312 310 307 305 303 302 301 300 298 296 294 292 290 287 284 281 278 274 270 267 264 261 258 256 254 252 250 248 246 245 244 243
21 9 4 358 353 348 342 339 336 333 329 326 323 320 317 315 313 310 308 307 305 304 302 301 299 297 295 293 291 289 287 284 281 278 274 270 266 263 260 258 255 252 251 249 247 246 245 244 243
350 342 340 336 333 333 330 330 330 328 325 322 320 318 316 313 312 310 309 307 306 304 303 302 300 298 295 293 291 291 290 289 286 282 278 272 267 262 259 256 254 252 249 248 247 245 244 243 243
330 326 324 323 324 325 325 326 326 324 322 320 319 317 315 313 312 312 311 310 309 308 307 305 302 299 297 297 297 297 297 296 293 290 285 277 269 262 257 255 253 251 248 247 246 245 243 242 242
318 317 318 319 320 321 321 323 324 322 320 319 319 317 316 315 315 314 314 313 313 312 309 306 303 302 302 303 303 302 301 300 298 296 292 286 278 268 259 252 250 248 247 245 244 243 242 241 240
314 312 313 315 318 320 320 322 323 320 320 320 320 319 319 317 317 318 317 316 315 313 309 306 305 306 307 307 306 305 303 301 299 299 298 295 289 280 269 259 250 246 245 243 242 241 241 240 239
310 309 313 317 320 322 319 321 324 322 323 322 322 322 320 320 320 320 319 318 316 312 309 307 308 309 309 308 306 305 304 302 300 300 299 299 298 295 287 272 258 248 243 241 241 240 239 238 238
312 313 316 319 320 324 322 321 325 326 325 324 324 323 323 323 323 322 322 320 316 313 310 310 310 310 310 308 305 303 302 300 299 298 298 298 298 297 295 289 274 258 246 240 238 238 238 238 237
316 317 318 319 321 323 323 325 328 327 327 326 326 325 325 325 325 324 323 320 317 314 313 312 311 311 310 308 305 302 301 300 299 298 298 298 297 296 296 293 288 273 256 245 239 237 237 237 236
320 319 319 321 322 326 328 329 328 328 328 328 327 327 327 327 327 326 324 321 319 317 315 314 313 312 310 308 305 302 300 298 297 296 295 295 295 293 292 292 290 283 270 255 244 239 236 236 236
324 325 325 325 326 329 328 330 329 330 330 330 329 329 328 329 329 327 324 322 321 320 318 316 314 312 311 308 306 303 300 298 295 293 291 290 289 289 287 286 285 281 274 263 252 244 239 237 236
326 325 326 327 326 326 329 333 331 332 332 331 330 330 330 331 329 327 326 325 324 322 320 318 316 314 312 310 308 306 303 301 298 295 292 288 285 283 281 279 277 275 271 264 255 247 241 239 238
324 325 327 327 326 329 332 332 332 333 332 331 331 332 333 332 330 328 327 327 325 323 321 320 319 318 317 316 315 314 312 309 306 301 297 291 286 281 276 273 269 266 264 261 256 248 241 237 237
325 326 328 331 332 331 331 333 336 334 333 333 334 334 334 333 331 330 329 328 326 325 324 325 325 326 326 325 324 322 320 317 314 310 305 298 291 282 275 268 264 261 257 255 253 248 242 236 234
327 329 330 331 332 333 333 334 336 335 335 335 336 336 335 333 332 331 330 329 328 328 329 331 331 331 330 328 327 325 322 320 318 314 310 305 298 289 278 268 261 256 253 250 248 246 242 239 236
327 329 330 332 333 334 334 335 337 337 337 337 337 337 336 334 333 332 331 331 331 333 334 335 335 334 333 331 329 327 324 322 319 316 312 308 302 295 285 272 261 254 250 246 244 243 242 240 238
Height
5863 5862 5863 5864 5865 5865 5864 5864 5865 5865 5865 5866 5866 5865 5865 5865 5865 5867 5865 5863 5862 5861 5860 5859 5859 5858 5857 5857 5857 5856 5856 5856 5855 5855 5854 5853 5852 5852 5851 5851 5850 5850 5850 5850 5850 5850 5851 5852 5853
5862 5862 5863 5864 5864 5864 5864 5864 5864 5864 5864 5864 5864 5864 5863 5862 5862 5861 5859 5859 5858 5856 5855 5854 5853 5852 5852 5851 5851 5850 5850 5849 5849 5848 5847 5847 5846 5845 5845 5844 5844 5844 5844 5844 5844 5845 5845 5846 5848
5862 5862 5864 5863 5862 5863 5864 5863 5863 5863 5863 5862 5862 5862 5861 5859 5858 5857 5856 5855 5854 5852 5851 5850 5849 5848 5847 5846 5845 5844 5844 5843 5842 5841 5841 5840 5839 5838 5838 5837 5837 5837 5837 5837 5838 5838 5839 5840 5842
5863 5863 5864 5864 5863 5863 5863 5863 5863 5863 5862 5861 5861 5859 5858 5857 5856 5855 5854 5852 5851 5850 5849 5847 5845 5844 5843 5842 5841 5840 5838 5837 5836 5835 5834 5833 5833 5832 5831 5831 5830 5830 5830 5831 5831 5832 5833 5834 5835
5864 5864 5865 5864 5864 5863 5863 5862 5862 5862 5861 5860 5860 5859 5857 5856 5855 5853 5852 5850 5849 5847 5845 5843 5842 5840 5839 5837 5835 5834 5832 5831 5829 5828 5827 5826 5825 5825 5824 5824 5823 5823 5823 5824 5824 5825 5826 5827 5828
5865 5865 5865 5864 5864 5863 5862 5862 5861 5860 5860 5859 5859 5858 5856 5855 5853 5852 5849 5847 5845 5843 5841 5839 5837 5835 5833 5831 5829 5827 5825 5823 5822 5820 5819 5817 5816 5816 5815 5815 5815 5815 5815 5816 5816 5817 5818 5819 5821
5866 5866 5865 5864 5864 5863 5863 5862 5860 5860 5859 5858 5858 5856 5854 5852 5851 5848 5846 5844 5841 5839 5836 5834 5831 5828 5826 5823 5820 5818 5816 5814 5812 5811 5809 5808 5807 5806 5806 5805 5805 5805 5806 5806 5807 5808 5809 5811 5812
5867 5868 5865 5865 5864 5863 5863 5861 5860 5858 5857 5856 5855 5854 5852 5850 5848 5845 5843 5840 5837 5834 5831 5828 5825 5822 5819 5816 5813 5810 5807 5804 5802 5800 5799 5797 5796 5796 5795 5795 5795 5795 5796 5796 5797 5798 5800 5801 5803
5869 5869 5866 5866 5866 5864 5863 5862 5860 5858 5856 5855 5854 5852 5850 5848 5845 5842 5839 5836 5833 5829 5826 5822 5819 5815 5811 5808 5804 5801 5798 5795 5792 5790 5788 5786 5785 5784 5783 5783 5783 5784 5785 5786 5787 5788 5789 5791 5793
5870 5868 5867 5866 5866 5864 5863 5862 5861 5858 5857 5855 5853 5851 5848 5845 5842 5839 5835 5832 5828 5824 5820 5815 5811 5807 5803 5799 5795 5791 5787 5784 5781 5778 5776 5775 5773 5772 5772 5771 5771 5772 5773 5774 5775 5776 5778 5780 5782
5869 5868 5867 5866 5865 5864 5863 5862 5861 5859 5857 5855 5852 5849 5846 5843 5839 5835 5831 5827 5823 5818 5813 5807 5802 5797 5792 5787 5783 5779 5775 5772 5769 5766 5763 5761 5760 5759 5759 5759 5759 5760 5760 5761 5762 5764 5765 5767 5769
5870 5869 5868 5867 5865 5864 5863 5861 5860 5858 5856 5853 5850 5847 5843 5840 5835 5831 5826 5821 5815 5809 5804 5798 5791 5786 5780 5774 5769 5765 5761 5757 5754 5751 5749 5747 5745 5744 5744 5744 5745 5746 5747 5748 5749 5750 5752 5753 5755
5871 5869 5868 5867 5866 5864 5863 5861 5860 5856 5854 5851 5848 5844 5840 5836 5830 5825 5819 5813 5806 5800 5793 5786 5779 5772 5766 5759 5754 5749 5744 5740 5737 5734 5731 5730 5729 5728 5727 5728 5729 5730 5732 5733 5735 5737 5738 5740 5742
5872 5870 5869 5868 5867 5865 5863 5861 5859 5855 5852 5849 5845 5840 5835 5829 5823 5817 5810 5803 5795 5788 5780 5772 5764 5757 5749 5742 5735 5729 5724 5720 5716 5714 5711 5710 5709 5709 5709 5709 5710 5712 5715 5717 5720 5722 5724 5726 5729
5872 5871 5870 5868 5867 5865 5863 5860 5857 5853 5850 5845 5840 5834 5829 5822 5816 5808 5800 5792 5784 5775 5766 5757 5748 5739 5730 5722 5714 5707 5701 5696 5691 5689 5687 5686 5686 5687 5688 5689 5691 5693 5696 5699 5702 5705 5708 5711 5714
5873 5872 5870 5868 5866 5863 5862 5859 5855 5850 5846 5840 5834 5828 5821 5814 5806 5798 5789 5779 5769 5759 5749 5739 5730 5720 5709 5699 5690 5682 5675 5669 5664 5661 5660 5660 5660 5661 5664 5666 5669 5672 5675 5678 5682 5687 5691 5695 5698
5873 5871 5869 5867 5864 5861 5858 5855 5851 5846 5840 5834 5827 5820 5813 5804 5795 5785 5775 5764 5754 5743 5732 5721 5710 5699 5687 5675 5664 5655 5647 5640 5636 5632 5631 5631 5632 5634 5637 5640 5644 5649 5653 5657 5661 5666 5671 5676 5681
5872 5870 5867 5864 5861 5858 5855 5851 5846 5840 5834 5827 5820 5812 5803 5793 5782 5771 5760 5749 5737 5724 5712 5699 5687 5675 5663 5653 5643 5633 5625 5617 5611 5606 5603 5602 5603 5605 5608 5612 5617 5623 5628 5634 5639 5645 5650 5657 5662
5870 5867 5865 5862 5858 5855 5851 5846 5841 5834 5828 5820 5812 5802 5792 5780 5769 5757 5745 5732 5719 5706 5692 5678 5665 5652 5642 5633 5625 5618 5610 5602 5595 5589 5583 5579 5577 5577 5579 5583 5589 5595 5602 5609 5615 5622 5628 5635 5641
5867 5865 5862 5859 5855 5851 5845 5841 5836 5828 5820 5812 5802 5791 5780 5768 5755 5743 5730 5716 5702 5688 5673 5658 5645 5635 5626 5617 5610 5603 5597 5590 5584 5577 5571 5564 5560 5555 5553 5553 5559 5565 5573 5582 5590 5597 5605 5613 5620
5865 5862 5858 5855 5850 5846 5840 5835 5830 5821 5812 5802 5791 5780 5768 5755 5742 5728 5714 5700 5685 5669 5654 5641 5631 5622 5613 5605 5598 5591 5584 5578 5571 5565 5558 5551 5544 5539 5534 5531 5530 5534 5543 5553 5562 5571 5580 5590 5598
5861 5858 5854 5850 5845 5841 5835 5827 5823 5812 5802 5791 5780 5768 5754 5741 5727 5713 5698 5683 5667 5651 5637 5627 5618 5609 5601 5593 5586 5579 5572 5566 5559 5552 5546 5539 5531 5525 5519 5513 5509 5508 5513 5522 5533 5543 5554 5565 5576
5857 5853 5849 5845 5840 5836 5828 5820 5814 5803 5792 5781 5769 5755 5741 5727 5712 5698 5682 5666 5649 5635 5624 5615 5606 5598 5589 5581 5573 5566 5559 5552 5545 5538 5532 5526 5519 5512 5505 5500 5494 5491 5490 5495 5504 5515 5527 5539 5551
5853 5849 5845 5839 5834 5829 5821 5813 5804 5795 5783 5770 5757 5742 5728 5714 5699 5683 5666 5650 5635 5623 5613 5604 5595 5586 5577 5568 5559 5551 5544 5536 5529 5523 5517 5511 5506 5500 5493 5488 5482 5478 5476 5476 5481 5490 5501 5513 5525
5850 5845 5840 5833 5826 5822 5815 5806 5797 5785 5772 5759 5745 5731 5716 5701 5685 5668 5652 5637 5624 5613 5603 5593 5583 5573 5563 5553 5544 5535 5527 5519 5512 5505 5500 5495 5491 5486 5481 5476 5472 5468 5465 5464 5466 5471 5480 5490 5501
5846 5842 5837 5830 5822 5816 5808 5798 5789 5776 5762 5748 5734 5719 5704 5687 5670 5654 5639 5625 5614 5603 5592 5581 5570 5559 5548 5537 5527 5518 5509 5501 5493 5486 5481 5476 5473 5470 5467 5464 5461 5458 5456 5455 5456 5459 5464 5471 5480
5842 5837 5832 5826 5816 5808 5800 5791 5779 5766 5753 5739 5723 5707 5691 5674 5658 5642 5628 5615 5604 5592 5580 5568 5556 5544 5533 5522 5512 5502 5493 5484 5476 5469 5463 5458 5454 5452 5451 5450 5449 5447 5446 5446 5446 5448 5451 5457 5464
5838 5832 5827 5820 5811 5801 5792 5782 5771 5756 5743 5728 5712 5696 5680 5663 5647 5632 5618 5606 5593 5580 5567 5555 5543 5531 5521 5510 5500 5490 5481 5471 5463 5455 5448 5442 5437 5434 5433 5433 5434 5434 5434 5435 5436 5438 5441 5445 5450
5834 5828 5821 5814 5806 5795 5784 5777 5763 5748 5732 5717 5701 5685 5668 5652 5637 5622 5608 5595 5582 5569 5556 5544 5533 5522 5512 5502 5491 5481 5471 5461 5451 5442 5434 5427 5422 5418 5416 5416 5417 5419 5421 5423 5425 5427 5431 5435 5439
5830 5824 5817 5809 5799 5789 5778 5769 5753 5738 5722 5707 5691 5675 5658 5643 5628 5614 5600 5586 5572 5560 5548 5536 5526 5515 5504 5493 5482 5471 5461 5450 5440 5430 5421 5414 5407 5403 5399 5399 5400 5402 5405 5409 5412 5415 5419 5423 5428